EN

Hourly Weather Aalen

Today, 14 June, Monday

Time Temperature Precipitation Wind Pressure Humidity
00:00 +11°C° 0 mm 1 mps 728 mmHg 86%
01:00 +11°C° 0 mm 1 mps 728 mmHg 87%
02:00 +10°C° 0 mm 1 mps 728 mmHg 88%
03:00 +10°C° 0 mm 1 mps 727 mmHg 89%
04:00 +9°C° 0 mm 1 mps 727 mmHg 89%
05:00 +10°C° 0 mm 2 mps 727 mmHg 84%
06:00 +12°C° 0 mm 2 mps 727 mmHg 79%
07:00 +14°C° 0 mm 2 mps 727 mmHg 74%
08:00 +15°C° 0 mm 2 mps 727 mmHg 69%
09:00 +17°C° 0 mm 2 mps 727 mmHg 64%
10:00 +18°C° 0 mm 3 mps 727 mmHg 60%
11:00 +20°C° 0 mm 3 mps 727 mmHg 57%
12:00 +21°C° 0 mm 2 mps 726 mmHg 54%
13:00 +23°C° 0 mm 2 mps 726 mmHg 52%
14:00 +23°C° 0 mm 2 mps 726 mmHg 52%
15:00 +23°C° 0 mm 2 mps 726 mmHg 52%
16:00 +24°C° 0 mm 2 mps 725 mmHg 52%
17:00 +23°C° 0 mm 1 mps 725 mmHg 60%
18:00 +22°C° 0 mm 1 mps 725 mmHg 67%
19:00 +21°C° 0 mm 1 mps 725 mmHg 75%
20:00 +19°C° 0 mm 1 mps 725 mmHg 77%
21:00 +16°C° 0 mm 1 mps 725 mmHg 80%
22:00 +14°C° 0 mm 1 mps 725 mmHg 82%
23:00 +14°C° 0 mm 1 mps 724 mmHg 82%

Tomorrow, 15 June, Tuesday

Time Temperature Precipitation Wind Pressure Humidity
00:00 +13°C° 0 mm 0 mps 724 mmHg 83%
01:00 +12°C° 0 mm 0 mps 724 mmHg 83%
02:00 +13°C° 0 mm 1 mps 724 mmHg 83%
03:00 +12°C° 0 mm 1 mps 724 mmHg 84%
04:00 +12°C° 0 mm 1 mps 724 mmHg 84%
05:00 +14°C° 0 mm 1 mps 724 mmHg 81%
06:00 +15°C° 0 mm 1 mps 724 mmHg 77%
07:00 +18°C° 0 mm 1 mps 725 mmHg 73%
08:00 +20°C° 0 mm 1 mps 725 mmHg 68%
09:00 +21°C° 0 mm 1 mps 725 mmHg 62%
10:00 +23°C° 0 mm 1 mps 725 mmHg 57%
11:00 +24°C° 0 mm 1 mps 725 mmHg 55%
12:00 +25°C° 0 mm 1 mps 725 mmHg 53%
13:00 +25°C° 0 mm 1 mps 725 mmHg 51%
14:00 +26°C° 0 mm 1 mps 725 mmHg 51%
15:00 +26°C° 0 mm 1 mps 724 mmHg 52%
16:00 +26°C° 0 mm 1 mps 724 mmHg 52%
17:00 +25°C° 0 mm 1 mps 724 mmHg 60%
18:00 +24°C° 0 mm 1 mps 724 mmHg 67%
19:00 +21°C° 0 mm 0 mps 724 mmHg 75%
20:00 +19°C° 0 mm 0 mps 724 mmHg 77%
21:00 +17°C° 0 mm 0 mps 724 mmHg 80%
22:00 +16°C° 0 mm 0 mps 724 mmHg 82%
23:00 +15°C° 0 mm 0 mps 723 mmHg 83%

Day after tomorrow, 16 June, Wednesday

Time Temperature Precipitation Wind Pressure Humidity
00:00 +15°C° 0 mm 0 mps 723 mmHg 83%
01:00 +14°C° 0 mm 0 mps 723 mmHg 84%
02:00 +15°C° 0 mm 1 mps 723 mmHg 85%
03:00 +15°C° 0 mm 1 mps 723 mmHg 85%
04:00 +15°C° 0 mm 1 mps 723 mmHg 86%
05:00 +16°C° 0 mm 1 mps 723 mmHg 83%
06:00 +18°C° 0 mm 1 mps 723 mmHg 81%
07:00 +19°C° 0 mm 1 mps 723 mmHg 78%
08:00 +21°C° 0 mm 1 mps 723 mmHg 74%
09:00 +21°C° 0 mm 2 mps 723 mmHg 69%
10:00 +24°C° 0 mm 2 mps 723 mmHg 64%
11:00 +25°C° 0 mm 2 mps 723 mmHg 61%
12:00 +26°C° 0 mm 2 mps 723 mmHg 57%
13:00 +26°C° 0 mm 3 mps 723 mmHg 54%
14:00 +27°C° 0 mm 3 mps 722 mmHg 54%
15:00 +27°C° 0 mm 3 mps 722 mmHg 55%
16:00 +27°C° 0 mm 3 mps 722 mmHg 55%
17:00 +26°C° 0 mm 2 mps 722 mmHg 62%
18:00 +25°C° 0 mm 2 mps 722 mmHg 69%
19:00 +24°C° 0 mm 2 mps 721 mmHg 76%
20:00 +22°C° 0 mm 1 mps 721 mmHg 79%
21:00 +21°C° 0 mm 1 mps 721 mmHg 81%
22:00 +19°C° 0 mm 1 mps 721 mmHg 83%
23:00 +18°C° 0 mm 1 mps 721 mmHg 85%

17 June, Thursday

Time Temperature Precipitation Wind Pressure Humidity
00:00 +18°C° 0 mm 1 mps 721 mmHg 87%
01:00 +16°C° 0 mm 1 mps 721 mmHg 90%
02:00 +16°C° 0 mm 1 mps 721 mmHg 90%
03:00 +15°C° 0 mm 1 mps 721 mmHg 91%
04:00 +15°C° 0 mm 1 mps 721 mmHg 92%
05:00 +16°C° 0 mm 2 mps 721 mmHg 88%
06:00 +17°C° 0 mm 2 mps 721 mmHg 85%
07:00 +19°C° 0 mm 2 mps 721 mmHg 81%
08:00 +21°C° 0 mm 2 mps 721 mmHg 75%
09:00 +23°C° 0 mm 2 mps 721 mmHg 70%
10:00 +25°C° 0 mm 1 mps 721 mmHg 64%
11:00 +26°C° 0 mm 1 mps 721 mmHg 60%
12:00 +28°C° 0 mm 1 mps 721 mmHg 56%
13:00 +29°C° 0 mm 1 mps 721 mmHg 52%
14:00 +29°C° 0 mm 1 mps 721 mmHg 52%
15:00 +29°C° 0 mm 1 mps 721 mmHg 52%
16:00 +29°C° 0 mm 2 mps 721 mmHg 52%
17:00 +28°C° 0 mm 2 mps 720 mmHg 59%
18:00 +26°C° 0 mm 1 mps 720 mmHg 67%
19:00 +25°C° 0 mm 1 mps 720 mmHg 74%
20:00 +24°C° 0 mm 1 mps 720 mmHg 76%
21:00 +22°C° 0 mm 1 mps 720 mmHg 78%
22:00 +20°C° 0 mm 1 mps 720 mmHg 79%
23:00 +20°C° 0 mm 1 mps 720 mmHg 80%

18 June, Friday

Time Temperature Precipitation Wind Pressure Humidity
00:00 +19°C° 0 mm 1 mps 720 mmHg 82%
01:00 +19°C° 0 mm 1 mps 720 mmHg 83%
02:00 +19°C° 0 mm 1 mps 720 mmHg 84%
03:00 +18°C° 0 mm 1 mps 720 mmHg 86%
04:00 +18°C° 0 mm 1 mps 720 mmHg 88%
05:00 +19°C° 0 mm 1 mps 720 mmHg 86%
06:00 +20°C° 0 mm 1 mps 721 mmHg 84%
07:00 +21°C° 0 mm 1 mps 721 mmHg 82%
08:00 +23°C° 0 mm 1 mps 721 mmHg 78%
09:00 +24°C° 0 mm 1 mps 722 mmHg 74%
10:00 +26°C° 0 mm 1 mps 722 mmHg 70%
11:00 +27°C° 0.1 mm 1 mps 722 mmHg 67%
12:00 +27°C° 0.1 mm 1 mps 722 mmHg 63%
13:00 +28°C° 0.1 mm 1 mps 722 mmHg 60%
14:00 +28°C° 0.1 mm 1 mps 722 mmHg 60%
15:00 +28°C° 0.1 mm 1 mps 722 mmHg 60%
16:00 +28°C° 0.1 mm 1 mps 722 mmHg 61%
17:00 +27°C° 0.1 mm 1 mps 722 mmHg 67%
18:00 +26°C° 0.1 mm 1 mps 722 mmHg 74%
19:00 +25°C° 0.1 mm 1 mps 722 mmHg 80%
20:00 +23°C° 0.3 mm 1 mps 722 mmHg 83%
21:00 +22°C° 0.3 mm 1 mps 722 mmHg 86%
22:00 +21°C° 0.3 mm 1 mps 723 mmHg 90%
23:00 +20°C° 0.3 mm 1 mps 723 mmHg 90%

19 June, Saturday

Time Temperature Precipitation Wind Pressure Humidity
00:00 +18°C° 0.3 mm 0 mps 723 mmHg 90%
01:00 +18°C° 0.3 mm 0 mps 723 mmHg 91%
02:00 +17°C° 0.4 mm 0 mps 723 mmHg 91%
03:00 +19°C° 0.4 mm 1 mps 723 mmHg 92%
04:00 +19°C° 0.4 mm 1 mps 723 mmHg 92%
05:00 +20°C° 0 mm 1 mps 723 mmHg 91%
06:00 +21°C° 0 mm 1 mps 724 mmHg 89%
07:00 +20°C° 0 mm 0 mps 724 mmHg 87%
08:00 +24°C° 0.1 mm 1 mps 724 mmHg 81%
09:00 +25°C° 0.1 mm 1 mps 724 mmHg 75%
10:00 +26°C° 0.1 mm 1 mps 724 mmHg 69%
11:00 +27°C° 0 mm 1 mps 724 mmHg 66%
12:00 +28°C° 0 mm 1 mps 724 mmHg 62%
13:00 +29°C° 0 mm 1 mps 723 mmHg 59%
14:00 +29°C° 0 mm 1 mps 723 mmHg 58%
15:00 +29°C° 0 mm 1 mps 723 mmHg 58%
16:00 +29°C° 0 mm 1 mps 723 mmHg 58%
17:00 +28°C° 0 mm 2 mps 722 mmHg 65%
18:00 +27°C° 0 mm 2 mps 722 mmHg 72%
19:00 +26°C° 0 mm 2 mps 722 mmHg 80%
20:00 +25°C° 0 mm 2 mps 722 mmHg 82%
21:00 +24°C° 0 mm 2 mps 721 mmHg 84%
22:00 +21°C° 0 mm 2 mps 721 mmHg 87%
23:00 +21°C° 0 mm 2 mps 721 mmHg 88%
Show more